NOAA 16 DEB, 41075

Orbit data source: Space-Track

NOAA 16 DEB, 41075 is space debris in SSO originally from a launch on Thu, 21 Sep 2000 UTC launched from the Air Force Western Test Range (AFWTR). Debris objects in space refer to the collection of defunct objects orbiting the Earth. Examples of debris include non-operational satellites, rocket bodies, and fragments generated from explosions, collisions, or faulty payload assembly.

Loading next visibility...
NOAA 16 DEB details
Identifier
41075, 2000-055AJ
Orbit
SSO
Last TLE update23 hours ago
Origin
Flag of USNOAA (US)
ManufacturerUnknown
MissionSpacecraft
Bus & MotorUnknown
MassUnknown
Launch date (UTC)
2000-09-21 (24 years ago)
Launch vehicleUnknown
Launch site
Air Force Western Test Range (AFWTR)
Object type
Payload
Rocket body
Debris
Shape & HBRUnknown
Radar Cross SectionSmall (<0.1 m²)

Expand to show TLE details & history

TLE from 23 hours ago
0 NOAA 16 DEB
1 41075U 00055AJ  24360.48252063  .00054202  00000-0  43084-2 0  9996
2 41075  99.0673  78.0282 0128974 130.7703 230.4791 14.93848208484067
Epoch: 2024-12-25T11:34Z
Definitive object data (Epoch: 2024-12-25T11:34:49.782Z)
Latitude-0.00004°
Longitude169.84515°
Altitude646.804 km
Speed7.503 km/s
True Right ascension05h 12m 06s
True Declination0° 00' 00"
Sunlit
Object was in full shadow at TLE epoch
Visualization TLE readout
Latitude4.56615°
Longitude170.20107°
Altitude636.279 km
Speed7.514 km/s
Apparent Right ascension02h 24m 03s
Apparent Declination-28° 23' 23"
Sunlit
Object is in full shadow
Visualization observer readout
Local Sidereal Time09:27:30
Azimuth256.039° W
Elevation-29.31°
Doppler factor1
Orbital elements
Apogee altitude672.809 km
Perigee altitude493.247 km
Semi-major axis6,961.165 km
Eccentricity0.0128974
Inclination99.0673°
RAAN78.0282°
Arg. of periapsis130.7703°
True anomaly229.35069°
Mean anomaly230.4791°
Eccentric anomaly229.91373°
Mean motion3.73698 °/min
BSTAR0.0043084
Orbital period96.33 mins
Loading maneuver chart data...
Loading historical data...
Loading historical data...
Loading historical data...
Loading historical data...
Loading historical data...
Loading historical data...
Loading historical data...

NOAA 16 DEB Visibility forecast

Observer location: undefined°, undefined

Span
Click to sort rows by Start time (UTC) header in descending order
Start Az.
Max El. time (UTC)
Max El. Az.
Max El.
End time (UTC)
End Az.
6 mins2024-12-26 18:41:23.171Z359.294° N2024-12-26 18:44:23.171Z265.966° W36.801°2024-12-26 18:47:23.171Z212.193° SW
6 mins2024-12-27 05:30:23.171Z173.98° S2024-12-27 05:33:23.171Z274.021° WNW43.479°2024-12-27 05:36:23.171Z339.957° N
|